Terminal Aerodrome Forecast
Issued by NWS Raleigh/Durham, NC

Home | Current Version | Previous Version | Text Only | Print | Product List | Glossary On
Versions: 1 2 3 4 5 6 7 8 9 10 11 12 13 14 15 16 17 18 19 20 21 22 23 24 25 26 27 28 29 30 31 32 33 34 35 36 37 38 39 40 41 42 43 44
000
FTUS42 KRAH 220734 AAA
TAFRDU
TAF AMD
KRDU 220734Z 2208/2306 24005KT P6SM SCT060 BKN100
     FM220900 32007KT P6SM SCT080=

USA.gov is the U.S. government's official web portal to all federal, state and local government web resources and services.